This is the latest recevied weather packets stored in our database for station/object KE2HEH. If no packets are shown the sender has not sent any weather packets the latest 10 day(s).
| Time | Temp. | Humidity | Pressure | Rain* | Wind** | Luminosity | Snow |
|---|---|---|---|---|---|---|---|
| 1777827256 | 12.22° C | 34% | 1012 hPa | 0 mm | - | 506 W/m² | - |
| 1777826951 | 12.22° C | 34% | 1012 hPa | 0 mm | - | 389 W/m² | - |
| 1777826649 | 12.22° C | 35% | 1011.9 hPa | 0 mm | - | 275 W/m² | - |
| 1777826345 | 12.78° C | 33% | 1012 hPa | 0 mm | - | 273 W/m² | - |
| 1777826043 | 12.22° C | 33% | 1012.1 hPa | 0 mm | - | 551 W/m² | - |
| 1777825740 | 11.67° C | 35% | 1012.1 hPa | 0 mm | - | 724 W/m² | - |
| 1777825437 | 11.67° C | 37% | 1012.4 hPa | 0 mm | - | 268 W/m² | - |
| 1777825134 | 11.67° C | 38% | 1012.3 hPa | 0 mm | - | 291 W/m² | - |
| 1777824830 | 11.67° C | 38% | 1012.3 hPa | 0 mm | - | 235 W/m² | - |
| 1777824527 | 12.22° C | 34% | 1012.1 hPa | 0 mm | - | 275 W/m² | - |
| 1777824224 | 12.22° C | 33% | 1012.1 hPa | 0 mm | - | 333 W/m² | - |
| 1777823919 | 11.67° C | 33% | 1012.1 hPa | 0 mm | - | 588 W/m² | - |
| 1777823617 | 11.67° C | 34% | 1012.2 hPa | 0 mm | - | 295 W/m² | - |
| 1777823314 | 12.22° C | 35% | 1012.1 hPa | 0 mm | - | 797 W/m² | - |
| 1777823011 | 11.11° C | 35% | 1012.4 hPa | 0 mm | - | 766 W/m² | - |
| 1777822709 | 10.56° C | 39% | 1012.3 hPa | 0 mm | - | 229 W/m² | - |
| 1777822407 | 11.11° C | 41% | 1012.3 hPa | 0 mm | - | 147 W/m² | - |
| 1777822104 | 10.56° C | 40% | 1012.4 hPa | 0 mm | - | 163 W/m² | - |
| 1777821802 | 11.11° C | 41% | 1012.2 hPa | 0 mm | - | 240 W/m² | - |
| 1777821499 | 11.67° C | 41% | 1012.2 hPa | 0 mm | - | 220 W/m² | - |
| 1777821197 | 11.67° C | 40% | 1012.5 hPa | 0 mm | - | 253 W/m² | - |
| 1777820893 | 11.11° C | 40% | 1012.5 hPa | 0 mm | - | 242 W/m² | - |
| 1777820589 | 11.11° C | 40% | 1012.5 hPa | 0 mm | - | 265 W/m² | - |
| 1777820286 | 11.67° C | 41% | 1012.4 hPa | 0 mm | - | 210 W/m² | - |
| 1777819984 | 11.67° C | 42% | 1012.3 hPa | 0 mm | - | 782 W/m² | - |
* Rain latest hour (hover to see other rain measurements)
** Current wind speed in m/s (hover to see current wind gust speed)